Вернуться в каталог

SCOUT A DEB

АктивенPO
NORAD 2386·DEBRIS·🇺🇸 United States

Запущен Mar 26, 1966 с Vandenberg Space Force Base

Loading…

Ближайшие Пролёты (ближайшие 24 часа)

TLE

СвежийSource: Space-Track

Эпоха: Sep 14, 2026, 04:02 UTC

1 02386U 66024D   26257.16840187  .00000193  00000-0  15981-3 0  9994
2 02386  90.0403 331.6662 0129849  66.0022 295.4677 13.81656342334237

Отслеживайте SCOUT A DEB в реальном времени с AllMySat

Download on the App Store